Flag for U.S.A. Weather past 2 weeks in Pontiac, Michigan, U.S.A.

Now
63 °F

Scattered clouds.


Feels Like: 63 °F
Forecast: 39 / 74 °F
Wind: 12 mph from Southwest

Location: Oakland County International Airport

Current Time: May 23, 2015 at 11:25:27 AM

Latest Report: May 23, 2015 at 10:53 AM


Visibility: 10 mi

Pressure: 30.39 "Hg

Humidity: 38%

Dew point: 37 °F

Location of PontiacLocation

Historic Weather in Pontiac — Graph

°F

Pontiac temperature yesterday

Maximum temperature yesterday: 64 °F (at 4:53 PM)
Minimum temperature yesterday: 43 °F (at 11:53 PM)
Average temperature yesterday: 54 °F

Past Weeks' High & Low Weather Summary

 TemperatureHumidityPressure
High83 °F (May 8, 1:53 PM)100% (May 9, 2:59 AM)30.48 "Hg (May 9, 2:59 AM)
Low35 °F (May 23, 4:53 AM)24% (May 22, 6:53 PM)29.74 "Hg (May 11, 6:53 PM)
Average60 °F70%30.08 "Hg
* Reported May 8 9:53 AM — May 23 9:53 AM, Pontiac, Weather by CustomWeather, © 2015

Note: Actual official high and low records may vary slightly from our data, if they occured in-between our weather recording intervals... More about our weather records

Advertising

Pontiac weather history for previous 24 hours

 ConditionsComfort  
Time TempWeatherWind HumidityBarometerVisibility
9:53 AM
Sat, May 23
60 °FScattered clouds.9 mph38%30.40 "Hg10 mi
8:53 AM54 °FPassing clouds.5 mph51%30.40 "Hg10 mi
7:53 AM46 °FPassing clouds.No wind63%30.40 "Hg10 mi
6:53 AM38 °FPassing clouds.No wind76%30.38 "Hg10 mi
5:53 AM36 °FClear.No wind75%30.36 "Hg10 mi
4:53 AM35 °FClear.No wind78%30.35 "Hg10 mi
3:53 AM36 °FClear.No wind70%30.34 "Hg10 mi
2:53 AM39 °FClear.No wind60%30.32 "Hg10 mi
1:53 AM38 °FClear.No wind65%30.33 "Hg10 mi
12:53 AM42 °FClear.No wind47%30.34 "Hg10 mi
11:53 PM
Fri, May 22
43 °FClear.5 mph43%30.35 "Hg10 mi
10:53 PM44 °FPassing clouds.7 mph47%30.33 "Hg10 mi
9:53 PM47 °FScattered clouds.8 mph46%30.31 "Hg10 mi
8:53 PM52 °FPassing clouds.15 mph47%30.26 "Hg10 mi
7:53 PM63 °FPassing clouds.9 mph26%30.24 "Hg10 mi
6:53 PM64 °FPassing clouds.10 mph24%30.23 "Hg10 mi
5:53 PM64 °FPassing clouds.12 mph25%30.22 "Hg10 mi
4:53 PM64 °FPassing clouds.14 mph25%30.22 "Hg10 mi
3:53 PM63 °FPassing clouds.12 mph29%30.22 "Hg10 mi
2:53 PM62 °FPassing clouds.12 mph30%30.21 "Hg10 mi
1:53 PM60 °FPassing clouds.16 mph33%30.19 "Hg10 mi
12:53 PM59 °FPassing clouds.13 mph35%30.19 "Hg10 mi
11:53 AM58 °FSunny.14 mph35%30.17 "Hg10 mi
Weather by CustomWeather, © 2015

See weather overviewHow to use our weather pages